Batumi International Airport
UGSB : rendu visible

Aérodrome :











RETROUVEZ-NOUS SUR...

 
LOGIN :

S'inscrire | Disclaimer

   EN    FR    IT 

 









Légende :    VFR   VFR Marginal   IFR   IFR Intensif   IFR Très Intensif
Visi : 
Plafond : 
>= 8 km
>= 3000ft
5 à 8 km
1000 à 3000 ft
1500m à 5 km
500 à 1000 ft
800 à 1500m
200 à 500 ft
< 800m
< 200 ft
Symboles :   Orages  Brouillard  Fortes neiges  Fortes précipitations  Vent > 20 kt







- Altitude de l'aérodrome : 105 ft
- Code IATA : BUS


UGSB - Batumi International

DERNIER METAR :
  • 231730Z 00000KT CAVOK 24/22 Q1009 R13/CLRD70 NOSIG

METARs EXPIRÉS :
  • 231700Z 00000KT CAVOK 24/22 Q1009 R13/70D NOSIG
  • 231630Z 00000KT CAVOK 25/22 Q1010 R13/70D NOSIG
  • 231600Z 00000KT CAVOK 26/22 Q1010 R13/70D NOSIG
  • 231530Z 26002KT CAVOK 27/22 Q1010 R13/70D NOSIG
  • 231500Z 26003KT CAVOK 27/22 Q1009 R13/CLRD70 NOSIG

TAF TAF UGSB
Valide du 23 à 18h jusqu'au 24 à 18h UTC


231700Z 2318/2418 13008KT 9999 FEW023 TX30/2412Z TN20/2401Z
BECMG 2405/2407 29008KT CAVOK
BECMG 2417/2419 14010KT FEW020
FIR UGGG / Asie



MET'MAP, la Météo Aéronautique d'un coup d'oeil ! - Copyright ORBIFLY Décembre 2007 - Disclaimer

ORBIFLY MET'MAP TEAM :

Programmation & Développement : Alexandra Zaïnal
Conception & Développement : Baudouin d'Aumeries
Co-Programmation & Développement : Marc-Olivier Méhu
Soutien technique & logistique : Manuel Goepfert

Contact : metmap@orbifly.com




SOURCES & CREDITS :

   NOAA       Earth
Advisory